SL-16 R/B (22566 NORAD) Tracking and Keplerian Element Data

This shows tracking and keplerian element data for the satellite.

Feedback or suggestion? Click here.




ElementValue
Catalog22566
NameSL-16 R/B
Epoch Orbit59082
Epoch Day12.59607936
Epoch Year2024
RAAN68.055
Inclination71.0083
Eccentricity0.0007917
Argument of Perigee77.6614
Mean Anonmoly282.5395
Mean Motion14.1510121
Decay Rate9.7E-07
L11 22566U 93016B 24012.59607936 .00000097 00000+0 74275-4 0 9998
L22 22566 71.0083 68.0550 0007917 77.6614 282.5395 14.15101210590825



Live tracking and technical data element details for SL-16 R/B (NORAD 22566). SL-16 R/B can be tracked NOW for your location showing map with azimuth and elevation plus other details from your city location.







IsCatalogInMostPopularTable: catalog: 22566, numindb: 270
Update: records affected: 1



GetName: 22566 SL-16 R/B

Hit Count: updated at: Fri, 19 Apr 2024 12:35:54 GMT